DateTimeUTC,F1_A11,F1_S11,BsB_S11,BsG_S11,BsR_S11,BbsB_S11,BbsG_S11,BbsR_S11,BaB_A11,BaG_A11,BaR_A11,Tu_S11,T_S11,Uu_S11,U_S11,P_S11,T1_A11
2021-11-02T05:00:00Z,00000200,21000000,,,,,,,-000.07,-000.17,-000.04,18.4,25.5,,00.0,0648.9,31.1
2021-11-02T05:01:00Z,00000200,21000000,,,,,,,0000.32,0000.39,-000.02,18.4,25.5,,00.0,0648.9,31.0
2021-11-02T05:02:00Z,00000200,21000000,,,,,,,0000.01,-000.01,-000.07,18.3,25.4,,00.0,0648.9,31.0
2021-11-02T05:03:00Z,00000200,61000000,,,,,,,0000.25,0000.17,0000.20,18.3,25.4,,00.0,0648.9,31.0
2021-11-02T05:04:00Z,00000200,41000000,-000.28,-000.38,-000.55,0000.38,-000.05,-000.06,-000.03,-000.40,0000.12,18.2,25.1,,00.0,0649.7,31.0
2021-11-02T05:05:00Z,00000200,01000000,-000.05,-000.05,-000.21,0000.10,-000.08,0000.06,0000.16,0000.59,0000.21,18.2,25.0,,00.0,0649.7,31.0
2021-11-02T05:06:00Z,00000200,01000000,-000.32,0000.25,-000.03,0000.20,0000.19,0000.35,0000.09,0000.30,0000.04,18.2,25.1,,00.0,0649.7,31.0
2021-11-02T05:07:00Z,00000200,01000000,0000.25,-000.18,-000.28,-000.48,-000.00,0000.31,0000.31,-000.33,-000.25,18.3,25.1,,00.0,0649.7,31.0
2021-11-02T05:08:00Z,00000200,01000000,0000.08,-000.25,0000.05,0000.48,-000.20,0000.04,-000.04,0000.08,0000.43,18.4,25.1,,00.0,0649.7,31.1
2021-11-02T05:09:00Z,00000200,01000000,-000.55,-000.05,-000.20,-000.29,-000.21,-000.07,-000.12,0000.08,0000.55,18.4,25.1,,00.0,0649.7,31.1
2021-11-02T05:10:00Z,00000200,01000000,0000.09,0000.04,0000.03,0000.35,-000.39,0000.35,0000.26,0000.36,-000.24,18.5,25.1,,00.0,0649.7,31.1
2021-11-02T05:11:00Z,00000200,01000000,0000.06,0000.26,-000.19,0000.30,0000.05,0000.18,0000.32,0000.45,-000.37,18.6,25.1,,00.0,0649.7,31.1
2021-11-02T05:12:00Z,00000200,01000000,-000.20,0000.08,-000.25,-000.26,-000.19,0000.42,0000.25,-000.20,0000.67,18.7,25.2,,00.0,0649.6,31.1
2021-11-02T05:13:00Z,00000200,01000000,0000.65,-000.36,-000.31,-000.97,0000.14,0000.17,-000.35,0000.20,0000.16,18.7,25.2,,00.0,0649.6,31.1
2021-11-02T05:14:00Z,00000200,01000000,0000.18,0000.08,-000.25,0000.22,-000.11,0000.02,0000.34,0000.32,-000.05,18.8,25.2,,00.0,0649.6,31.1
2021-11-02T05:15:00Z,00000200,01000000,-000.18,-000.04,-000.13,-000.35,0000.13,-000.02,0000.07,-000.06,0000.06,18.8,25.2,,00.0,0649.6,31.1
2021-11-02T05:16:00Z,00000200,01000000,-000.05,-000.18,-000.40,0000.28,0000.28,-000.10,0000.50,-000.03,-000.02,18.8,25.3,,00.0,0649.6,31.1
2021-11-02T05:17:00Z,00000200,01000000,0000.35,0000.00,-000.37,-000.05,0000.18,-000.28,0000.11,0000.39,0000.12,18.8,25.3,,00.0,0649.5,31.1
2021-11-02T05:18:00Z,00000200,01000000,-000.17,-000.19,-000.30,-000.41,0000.09,0000.23,0000.26,-000.13,0000.12,18.7,25.2,,00.0,0649.5,31.1
2021-11-02T05:19:00Z,00000200,01000000,-000.34,-000.23,-000.17,-000.49,0000.09,0000.06,-000.14,0000.16,0000.34,18.7,25.2,,00.0,0649.5,31.1
2021-11-02T05:20:00Z,00000200,01000000,-000.91,-000.15,-000.28,-000.41,0000.07,0000.37,0000.21,0000.15,0000.21,18.7,25.2,,00.0,0649.5,31.1
2021-11-02T05:21:00Z,00000200,01000000,0000.69,-000.16,-000.42,0000.41,0000.00,0000.06,0000.25,0000.22,-000.07,18.7,25.2,,00.0,0649.5,31.1
2021-11-02T05:22:00Z,00000200,01000000,0000.79,0000.38,-000.07,0000.16,0000.07,0000.08,0000.10,0000.22,0000.16,18.7,25.2,,00.0,0649.5,31.1
2021-11-02T05:23:00Z,00000200,01000000,0000.54,0000.35,0000.05,-000.04,-000.04,0000.17,0000.15,0000.28,0000.23,18.8,25.2,,00.0,0649.5,31.1
2021-11-02T05:24:00Z,00000200,01000000,0000.90,-000.39,-000.32,-000.12,-000.14,0000.16,-000.12,-000.31,-000.18,18.8,25.3,,00.0,0649.5,31.1
2021-11-02T05:25:00Z,00000200,01000000,-000.19,-000.26,0000.08,-001.09,-000.19,-000.02,0000.13,-000.08,-000.14,18.9,25.3,,00.0,0649.5,31.1
2021-11-02T05:26:00Z,00000200,01000000,0000.41,0000.30,-000.14,0000.32,0000.02,0000.28,0000.07,0000.52,0000.48,18.8,25.3,,00.0,0649.4,31.1
2021-11-02T05:27:00Z,00000200,01000000,0000.14,-000.14,0000.19,-000.32,-000.12,0000.18,0000.47,0000.15,0000.22,18.7,25.2,,00.0,0649.4,31.1
2021-11-02T05:28:00Z,00000200,01000000,-000.10,0000.15,0000.07,-000.72,0000.08,0000.14,0000.45,0000.43,0000.16,18.7,25.2,,00.0,0649.3,31.1
2021-11-02T05:29:00Z,00000200,01000000,0000.00,-000.37,-000.27,-000.17,-000.09,0000.03,0000.03,-000.09,-000.10,18.6,25.2,,00.0,0649.3,31.1
2021-11-02T05:30:00Z,00000200,01000000,-000.68,-000.18,-000.04,0000.02,0000.04,0000.04,-000.21,0000.05,0000.02,18.5,25.1,,00.0,0649.3,31.0
2021-11-02T05:31:00Z,00000200,01000000,-000.01,-000.16,0000.33,0000.08,0000.08,0000.06,0000.01,-000.24,-000.09,18.4,25.0,,00.0,0649.3,31.0
2021-11-02T05:32:00Z,00000200,01000000,-000.25,-000.04,-000.04,0000.21,-000.17,0000.40,0000.15,-000.16,0000.03,18.3,25.0,,00.0,0649.3,31.0
2021-11-02T05:33:00Z,00000200,01000000,0000.22,-000.17,-000.04,-000.14,-000.06,0000.20,-000.29,0000.01,-000.06,18.2,24.9,,00.0,0649.3,31.0
2021-11-02T05:34:00Z,00000200,01000000,0000.29,-000.14,-000.08,0000.00,0000.00,0000.07,0000.13,0000.18,0000.04,18.2,24.9,,00.0,0649.3,31.0
2021-11-02T05:35:00Z,00000200,01000000,0000.32,-000.09,-000.17,-000.33,-000.06,0000.00,-000.04,-000.10,-000.02,18.2,24.9,,00.0,0649.3,31.0
2021-11-02T05:36:00Z,00000200,01000000,0000.53,-000.39,-000.17,-000.37,-000.17,0000.05,0000.24,0000.54,0000.26,18.2,24.9,,00.0,0649.3,31.0
2021-11-02T05:37:00Z,00000200,01000000,-000.22,-000.01,-000.14,0000.42,-000.13,-000.05,-000.05,-000.42,-000.02,18.3,24.9,,00.0,0649.3,31.1
2021-11-02T05:38:00Z,00000200,01000000,0000.01,-000.07,-000.41,-000.13,-000.04,-000.03,0000.21,0000.24,-000.20,18.4,25.0,,00.0,0649.3,31.1
2021-11-02T05:39:00Z,00000200,01000000,-000.50,-000.41,-000.19,0000.15,-000.24,0000.43,0000.04,0000.12,0000.29,18.4,25.0,,00.0,0649.3,31.1
2021-11-02T05:40:00Z,00000200,01000000,0000.06,0000.16,-000.33,0000.22,-000.25,-000.02,-000.04,0000.16,-000.07,18.5,25.0,,00.0,0649.3,31.1
2021-11-02T05:41:00Z,00000200,01000000,0000.05,-000.02,-000.20,0000.22,-000.18,0000.15,-000.00,0000.06,0000.54,18.5,25.0,,00.0,0649.3,31.1
2021-11-02T05:42:00Z,00000200,01000000,-000.47,0000.10,-000.28,0000.26,-000.07,0000.18,0000.32,0000.38,0000.05,18.6,25.1,,00.0,0649.3,31.1
2021-11-02T05:43:00Z,00000200,01000000,-000.78,0000.04,-000.11,0000.16,-000.03,0000.03,-000.01,-000.26,0000.03,18.7,25.1,,00.0,0649.3,31.1
2021-11-02T05:44:00Z,00000200,01000000,0000.53,0000.11,-000.02,0000.05,-000.08,0000.04,-000.13,0000.13,-000.13,18.7,25.1,,00.0,0649.3,31.1
2021-11-02T05:45:00Z,00000200,01000000,-000.97,-000.25,0000.01,0000.16,0000.37,-000.03,0000.14,-000.04,-000.04,18.7,25.1,,00.0,0649.3,31.1
2021-11-02T05:46:00Z,00000200,01000000,0000.74,0000.11,-000.03,0000.30,0000.09,-000.15,0000.06,0000.19,0000.07,18.7,25.1,,00.0,0649.2,31.1
2021-11-02T05:47:00Z,00000200,01000000,-000.28,-000.19,0000.02,-000.09,0000.11,0000.03,-000.02,0000.16,0000.32,18.6,25.1,,00.0,0649.2,31.1
2021-11-02T05:48:00Z,00000200,01000000,0000.13,0000.23,0000.02,0000.06,-000.03,0000.07,0000.05,0000.11,-000.18,18.5,25.1,,00.0,0649.2,31.1
2021-11-02T05:49:00Z,00000200,01000000,0000.34,-000.13,0000.05,0000.00,0000.10,-000.09,0000.37,-000.05,-000.07,18.5,25.0,,00.0,0649.2,31.1
2021-11-02T05:50:00Z,00000200,01000000,0000.50,0000.20,-000.29,0000.16,-000.42,0000.08,0000.20,0000.01,0000.52,18.5,25.0,,00.0,0649.2,31.1
2021-11-02T05:51:00Z,00000200,01000000,0000.57,-000.13,0000.09,-000.59,-000.07,0000.35,0000.16,0000.20,-000.03,18.5,25.0,,00.0,0649.2,31.1
2021-11-02T05:52:00Z,00000200,01000000,0000.15,0000.39,-000.26,0000.03,0000.08,0000.14,0000.11,0000.30,-000.14,18.6,25.0,,00.0,0649.2,31.1
2021-11-02T05:53:00Z,00000200,01000000,-000.27,0000.30,-000.08,0000.56,0000.05,0000.21,-000.27,-000.04,-000.04,18.6,25.1,,00.0,0649.2,31.1
2021-11-02T05:54:00Z,00000200,01000000,0000.55,-000.05,-000.06,-000.12,-000.35,0000.36,0000.06,0000.15,0000.39,18.7,25.1,,00.0,0649.2,31.1
2021-11-02T05:55:00Z,00000200,01000000,0000.15,-000.06,-000.13,-000.43,-000.02,-000.13,0000.51,-000.26,0000.04,18.8,25.1,,00.0,0649.2,31.1
2021-11-02T05:56:00Z,00000200,01000000,0000.78,0000.18,-000.07,-000.51,-000.01,0000.14,-000.18,0000.05,-000.09,18.8,25.2,,00.0,0649.2,31.1
2021-11-02T05:57:00Z,00000200,41000000,,,,,,,-001.03,-000.74,-000.56,18.8,25.2,,00.0,0649.2,31.1
2021-11-02T05:58:00Z,00000200,61000000,,,,,,,0000.04,0000.26,-000.26,18.5,25.3,,00.0,0648.3,31.1
2021-11-02T05:59:00Z,00000200,21000000,,,,,,,0000.39,-000.03,0000.25,18.4,25.4,,00.0,0648.3,31.1
